Probability
0 0 0 0 0 0 0 0 0 0 0 0 0 0 0 0 0 0 0 0 0 0 0 0 0 0 0 0 0 0 0 0 0 0 0 0 0 0 0 0 0 0 0
0 0 0 0 0 0 0 0 0 0 0 0 0 0 0 0 0 0 0 0 0 0 0 0 0 0 0 0 0 0 0 0 0 0 0 0 0 0 0 0 0 0 0
0 0 0 0 0 0 0 0 0 0 0 0 0 0 0 0 0 0 0 0 0 0 0 0 0 0 0 0 0 0 0 0 0 0 0 0 0 0 0 0 0 0 0
0 0 0 0 0 0 0 0 0 0 0 0 0 0 0 0 0 0 0 0 0 0 0 0 0 0 0 0 0 0 0 0 0 0 0 0 0 0 0 0 0 0 0
0 0 0 0 0 0 0 0 0 0 0 0 0 0 0 0 0 0 0 0 0 0 0 0 0 0 0 0 0 0 0 0 0 0 0 0 0 0 0 0 0 0 0
0 0 0 0 0 0 0 0 0 0 0 0 0 0 0 0 0 0 0 0 0 0 0 0 0 0 0 0 0 0 0 0 0 0 0 0 0 0 0 0 0 0 0
0 0 0 0 0 0 0 0 0 0 0 0 0 0 0 0 0 0 0 0 0 0 0 0 0 0 0 0 0 0 0 0 0 0 0 0 0 0 0 0 0 0 0
0 0 0 0 0 0 0 0 0 0 0 0 0 0 0 0 0 0 0 0 0 0 0 0 0 0 0 0 0 0 0 0 0 0 0 0 0 0 0 0 0 0 0
0 0 0 0 0 0 0 0 0 0 0 0 0 0 0 0 0 0 0 0 0 0 0 0 0 0 0 0 0 0 0 0 0 0 0 0 0 0 0 0 0 0 0
0 0 0 0 0 0 0 0 0 0 0 0 0 0 0 0 0 0 0 0 0 0 0 0 0 0 0 0 0 0 0 0 0 0 0 0 0 0 0 0 0 0 0
0 0 0 0 0 0 0 0 0 0 0 0 0 0 0 0 0 0 0 0 0 0 0 0 0 0 0 0 0 0 0 0 0 0 0 0 0 0 0 0 0 0 0
0 0 0 0 0 0 0 0 0 0 0 0 0 0 0 0 0 0 0 0 0 0 0 0 0 0 0 0 0 0 0 0 0 0 0 0 0 0 0 0 0 0 0
0 0 0 0 0 0 0 0 0 0 0 0 0 0 0 0 0 0 0 0 0 0 0 0 0 0 0 0 0 0 0 0 0 0 0 0 0 0 0 0 0 0 0
0 0 0 0 0 0 0 0 0 0 0 0 0 0 0 0 0 0 0 0 0 0 0 0 0 0 0 0 0 0 0 0 0 0 0 0 0 0 0 0 0 0 0
0 0 0 0 0 0 0 0 0 0 0 0 0 0 0 0 0 0 0 0 0 0 0 0 0 0 0 0 0 0 0 0 0 0 0 0 0 0 0 0 0 0 0
0 0 0 0 0 0 0 0 0 0 0 0 0 0 0 0 0 0 0 0 0 0 0 0 0 0 0 0 0 0 0 0 0 0 0 0 0 0 0 0 0 0 0
0 0 0 0 0 0 0 0 0 0 0 0 0 0 0 0 0 0 0 0 0 0 0 0 0 0 0 0 0 0 0 0 0 0 0 0 0 0 0 0 0 0 0
0 0 0 0 0 0 0 0 0 0 0 0 0 0 0 0 0 0 0 0 0 0 0 0 0 0 0 0 0 0 0 0 0 0 0 0 0 0 0 0 0 0 0
0 0 0 0 0 0 0 0 0 0 0 0 0 0 0 0 0 0 0 0 0 0 0 0 0 0 0 0 0 0 0 0 0 0 0 0 0 0 0 0 0 0 0
0 0 0 0 0 0 0 0 0 0 0 0 0 0 0 0 0 0 0 0 0 0 0 0 0 0 0 0 0 0 0 0 0 0 0 0 0 0 0 0 0 0 0
0 0 0 0 0 0 0 0 0 0 0 0 0 0 0 0 0 0 0 0 0 0 0 0 0 0 0 0 0 0 0 0 0 0 0 0 0 0 0 0 0 0 0
0 0 0 0 0 0 0 0 0 0 0 0 0 0 0 0 0 0 0 0 0 0 0 0 0 0 0 0 0 0 0 0 0 0 0 0 0 0 0 0 0 0 0
0 0 0 0 0 0 0 0 0 0 0 0 0 0 0 0 0 0 0 0 0 0 0 0 0 0 0 0 0 0 0 0 0 0 0 0 0 0 0 0 0 0 0
0 0 0 0 0 0 0 0 0 0 0 0 0 0 0 0 0 0 0 0 0 0 0 0 0 0 0 0 0 0 0 0 0 0 0 0 0 0 0 0 0 0 0
0 0 0 0 0 0 0 0 0 0 0 0 0 0 0 0 0 0 0 0 0 0 0 0 0 0 0 0 0 0 0 0 0 0 0 0 0 0 0 0 0 0 0
0 0 0 0 0 0 0 0 0 0 0 0 0 0 0 0 0 0 0 0 0 0 0 0 0 0 0 0 0 0 0 0 0 0 0 0 0 0 0 0 0 0 0
Wind_Speed
2 2 2 2 2 2 2 2 2 2 2 2 2 2 2 3 3 3 4 3 3 4 3 4 4 3 3 3 2 2 3 3 6 6 4 4 4 4 4 3 4 4 5
2 2 2 2 1 2 2 3 2 2 2 2 2 2 2 2 2 3 4 3 4 4 4 4 4 3 4 3 3 4 4 4 5 7 5 4 5 4 4 4 5 4 5
2 2 2 2 2 2 3 2 2 2 2 2 1 2 2 2 3 3 3 3 3 4 4 5 5 4 5 4 4 4 4 4 4 5 6 4 4 3 4 4 5 4 5
2 2 2 2 3 3 2 2 2 2 2 2 2 2 2 2 3 3 3 3 3 4 4 4 4 4 5 5 5 5 4 4 4 5 6 5 4 3 3 4 5 4 5
2 2 3 2 2 1 2 2 1 1 2 2 2 2 2 2 3 3 3 3 3 4 4 4 4 5 6 5 4 4 4 4 4 5 5 5 4 4 4 3 5 4 4
3 3 2 1 1 2 2 1 1 2 1 1 2 2 2 3 5 5 3 3 3 4 4 4 4 4 5 8 8 7 6 5 5 5 5 6 7 5 4 4 4 5 5
2 2 1 2 2 2 1 1 1 2 1 2 2 2 3 4 6 6 5 2 3 4 4 4 4 4 4 5 7 8 8 9 9 7 7 8 7 6 4 5 5 6 7
2 2 2 2 2 1 1 2 2 1 1 2 2 2 3 4 6 6 6 3 3 4 4 4 5 5 5 5 5 5 5 6 8 6 6 7 6 5 5 6 6 6 6
2 3 2 2 2 2 2 2 2 1 2 2 2 2 3 4 6 6 6 3 3 4 4 4 5 5 9 9 5 5 7 7 8 9 10 10 11 10 7 3 4 4 6
4 3 2 2 3 3 3 2 1 1 2 2 2 2 3 4 5 6 6 2 4 4 4 4 5 6 9 9 5 5 7 7 5 6 7 8 7 7 8 5 4 5 5
2 2 2 2 3 3 2 1 1 1 1 2 3 3 3 3 5 6 6 3 3 4 4 4 4 9 10 10 8 5 8 7 5 5 5 5 4 4 4 4 4 4 5
1 1 2 2 2 2 2 2 1 2 2 2 2 3 3 3 4 6 8 7 6 4 5 4 5 10 10 10 7 8 9 7 4 4 4 5 4 4 4 4 4 4 5
1 2 2 2 2 2 2 2 2 2 2 2 2 3 4 3 4 7 8 8 8 5 4 7 8 9 9 7 7 8 5 3 3 4 5 5 5 5 4 4 4 4 4
2 2 1 2 2 2 2 2 2 3 3 3 3 4 4 3 3 3 3 4 5 5 4 5 7 8 7 6 5 5 3 3 4 5 5 5 4 4 4 4 4 4 4
2 1 1 1 2 2 2 3 3 4 4 4 4 3 4 5 6 7 4 3 3 4 3 2 2 2 3 3 3 3 3 3 4 4 4 5 5 5 5 4 4 4 5
2 2 2 2 2 2 2 3 5 5 6 8 7 6 5 7 9 8 8 8 7 5 2 2 3 3 4 4 4 4 4 4 4 4 5 5 5 5 5 4 4 4 5
3 2 2 2 2 2 2 2 3 4 6 7 8 9 8 9 9 8 8 7 5 3 2 3 4 4 4 4 4 5 5 5 4 5 5 5 5 5 5 5 5 5 5
2 2 2 2 2 2 2 3 3 3 4 4 6 8 9 9 8 8 7 4 3 3 3 4 4 4 4 4 4 5 5 5 4 5 5 5 5 5 5 6 5 6 6
2 2 2 2 2 2 2 2 2 3 4 4 4 5 6 7 7 7 4 2 3 4 4 4 4 4 5 5 5 5 5 5 5 5 5 6 5 5 6 6 6 7 6
2 2 2 2 2 2 2 2 3 3 3 4 4 4 3 2 2 3 2 2 3 4 4 4 4 4 5 5 5 5 5 5 5 5 5 5 5 5 6 7 6 6 6
1 2 2 2 2 3 3 3 3 4 4 4 5 5 7 3 3 4 4 4 4 4 4 4 4 4 4 4 4 5 5 5 5 5 5 5 5 5 5 5 6 6 5
1 1 2 2 3 3 3 3 3 4 4 5 4 5 7 3 4 4 5 5 4 4 4 4 5 5 4 5 5 5 5 6 5 5 5 5 5 5 5 5 5 5 5
2 2 2 3 3 3 3 3 3 4 4 4 4 4 4 4 4 5 5 5 4 4 4 4 5 5 4 4 4 5 6 6 6 6 6 6 5 5 5 6 6 6 6
2 2 3 3 3 3 4 4 4 4 4 4 4 4 5 5 5 5 5 4 4 4 4 4 5 7 8 6 5 5 6 6 6 6 7 7 6 6 5 6 6 7 6
2 2 3 3 3 3 4 4 4 4 4 4 4 5 5 5 5 5 5 4 5 5 6 5 5 6 8 9 8 7 9 10 9 7 6 6 7 7 6 7 6 6 6
2 3 3 3 3 4 4 4 4 5 5 5 5 5 5 5 5 5 5 5 5 5 6 5 7 8 9 8 9 10 11 11 10 10 7 6 6 6 6 5 6 6 5
Wind_Direction
204 203 209 216 217 213 218 234 238 241 236 231 232 238 245 242 231 225 234 240 244 256 260 255 258 261 259 263 261 256 251 245 262 278 276 284 284 283 283 277 276 278 282
204 189 202 214 208 218 238 244 237 240 245 239 234 235 255 264 253 239 240 238 241 249 254 254 259 260 258 258 256 257 257 250 254 274 281 282 276 276 275 276 283 282 281
186 187 204 206 210 233 248 256 250 245 250 246 235 239 248 259 261 255 249 252 254 257 257 251 256 258 264 263 262 260 261 263 257 266 280 283 282 289 288 289 285 284 285
181 187 214 225 224 231 245 252 252 248 248 246 244 248 248 249 253 254 256 259 261 266 270 266 263 256 261 261 261 262 264 268 267 267 275 281 283 286 285 287 292 289 291
181 200 227 233 233 238 250 258 255 247 249 250 248 260 264 255 254 257 251 254 260 270 274 271 271 268 270 269 269 270 262 262 266 270 275 285 284 291 281 285 284 297 293
188 214 228 218 226 233 241 248 253 256 264 263 258 261 270 269 274 274 273 258 264 269 275 279 277 272 277 279 278 278 271 265 265 267 271 275 278 279 283 281 286 297 293
195 211 204 203 218 229 228 217 240 252 263 267 268 264 268 272 280 284 279 274 269 270 274 282 285 289 282 284 284 283 282 275 269 266 266 269 277 276 276 277 277 277 275
192 208 208 204 219 227 217 227 242 252 249 258 270 268 274 280 288 292 294 283 273 275 274 274 278 288 289 292 292 293 288 282 277 272 270 277 278 279 267 269 272 280 284
209 224 222 209 213 216 227 238 244 252 260 264 280 275 277 287 293 297 300 291 281 281 280 278 276 279 286 293 292 287 289 288 289 285 283 284 286 286 283 284 281 281 283
226 229 219 208 210 219 230 240 245 243 253 268 277 276 272 281 289 296 299 289 285 286 286 279 272 278 290 296 286 281 284 290 302 304 297 294 290 288 284 266 264 269 281
227 217 214 211 214 219 223 230 232 237 255 261 272 282 277 277 284 288 291 287 275 285 286 286 285 290 292 295 291 278 281 297 301 292 291 292 290 286 283 275 265 257 261
196 209 225 226 222 213 206 221 219 217 234 253 273 285 283 280 282 284 284 280 283 274 278 284 287 295 297 297 294 292 300 303 297 294 293 292 293 293 291 285 273 265 260
194 226 237 235 226 216 206 213 218 218 231 250 257 270 283 286 281 281 280 281 282 280 281 288 294 300 302 298 296 301 303 295 290 286 283 285 287 286 286 285 283 279 276
208 238 241 231 240 239 227 219 218 222 231 244 251 262 274 280 277 279 275 279 279 279 283 287 290 291 290 294 298 297 286 275 271 273 281 284 286 284 281 282 284 289 286
210 235 246 245 246 249 245 238 239 237 232 241 245 248 261 272 276 283 292 284 282 278 297 297 292 292 286 289 291 286 281 279 276 277 279 284 285 284 283 280 274 279 271
208 232 236 240 244 246 256 278 265 262 266 264 267 268 268 273 290 290 288 287 291 298 310 286 287 285 282 287 292 296 292 285 282 282 280 279 282 283 285 282 273 267 270
206 225 230 230 233 241 245 254 279 285 271 272 275 277 278 284 286 289 293 297 299 309 275 270 272 274 277 280 281 283 285 285 285 280 278 278 280 282 282 281 276 273 272
210 220 222 230 234 237 241 246 251 267 286 287 281 279 285 289 289 292 298 308 289 286 261 263 268 271 273 273 274 277 281 283 278 275 275 274 272 273 275 277 277 275 277
215 229 231 236 238 242 246 248 250 254 264 280 299 295 291 290 289 288 291 250 254 262 262 262 263 266 269 268 268 269 270 271 270 270 269 270 269 267 269 270 273 275 274
235 242 235 235 239 243 246 246 251 254 260 265 267 276 291 286 277 280 271 262 258 261 262 265 266 264 265 264 265 265 267 267 266 265 266 266 266 264 265 267 267 271 272
236 245 236 239 240 241 242 243 247 250 254 259 262 266 275 268 260 262 262 257 255 260 264 268 270 269 267 269 270 272 272 273 269 267 268 269 268 269 269 270 271 269 273
221 236 237 241 248 247 248 248 247 249 254 261 275 277 275 271 260 261 260 259 257 256 255 259 264 262 258 258 260 264 267 268 268 268 270 273 273 271 269 268 271 273 270
216 231 242 246 247 252 254 249 248 249 254 255 260 265 262 255 256 261 266 266 265 266 264 259 265 271 267 261 256 253 257 261 261 262 266 267 266 266 266 267 264 265 265
218 229 239 247 247 248 252 254 251 251 252 255 256 256 258 259 261 264 268 271 269 268 264 261 261 265 268 272 268 262 262 267 265 258 255 255 259 262 262 262 262 259 262
219 230 237 241 245 250 255 257 256 255 255 256 257 259 262 263 264 266 267 267 266 267 266 265 265 263 263 266 269 269 269 272 271 262 254 248 249 252 255 259 260 260 261
227 234 240 242 243 244 246 251 255 256 256 258 257 257 259 261 262 263 264 264 266 269 269 267 263 264 268 271 270 273 273 272 269 264 252 243 244 249 248 252 254 255 257